SHT8Q EGLL-EGPH

Flight info

Callsign SHT8Q
Flight time 0h 56m
Altitude 32000
Route ULTIB T420 TNT UN57 POL UN601 RIBEL DCT INPIP
Aircraft A319/M-SDE3FGHIRWY/LB1

Departure

Time 2026-04-23 17:43
Airport London Heathrow Airport (EGLL)

Arrival

Time 2026-04-23 18:39
Airport Edinburgh Airport (EGPH)
Time Latitude Longitude Altitude Speed Heading
2026-04-23 17:12 51.46933 -0.48573 89 ft 0 kts 360°
2026-04-23 17:34 51.46916 -0.48573 89 ft 4 kts 360°
2026-04-23 17:35 51.46894 -0.48572 86 ft 4 kts
2026-04-23 17:35 51.46877 -0.48626 86 ft 3 kts 90°
2026-04-23 17:35 51.46877 -0.48633 86 ft 0 kts 90°
2026-04-23 17:39 51.46877 -0.48593 86 ft 7 kts 90°
2026-04-23 17:39 51.46874 -0.48500 88 ft 7 kts 109°
2026-04-23 17:39 51.46824 -0.48469 86 ft 2 kts 180°
2026-04-23 17:40 51.46817 -0.48469 86 ft 4 kts 179°
2026-04-23 17:40 51.46774 -0.48469 86 ft 8 kts 179°
2026-04-23 17:40 51.46706 -0.48468 86 ft 11 kts 179°
2026-04-23 17:41 51.46619 -0.48467 86 ft 12 kts 180°
2026-04-23 17:41 51.46494 -0.48454 88 ft 8 kts 147°
2026-04-23 17:41 51.46479 -0.48359 87 ft 6 kts 89°
2026-04-23 17:42 51.46481 -0.47730 86 ft 81 kts 90°
2026-04-23 17:42 51.46484 -0.46532 92 ft 133 kts 90°
2026-04-23 17:42 51.46488 -0.44902 490 ft 145 kts 90°
2026-04-23 17:43 51.46501 -0.43280 1102 ft 149 kts 85°
2026-04-23 17:43 51.46625 -0.41572 1561 ft 166 kts 71°
2026-04-23 17:43 51.47320 -0.39898 1871 ft 197 kts 51°
2026-04-23 17:43 51.48268 -0.38121 2399 ft 222 kts 52°
2026-04-23 17:44 51.49308 -0.36128 3091 ft 241 kts 53°
2026-04-23 17:44 51.50399 -0.34032 4066 ft 248 kts 53°
2026-04-23 17:44 51.52425 -0.29446 5973 ft 258 kts 71°
2026-04-23 17:45 51.53019 -0.26713 6983 ft 260 kts 72°
2026-04-23 17:45 51.55519 -0.22609 8790 ft 279 kts 21°
2026-04-23 17:45 51.57483 -0.22396 9716 ft 290 kts 356°
2026-04-23 17:46 51.61569 -0.23786 11038 ft 322 kts 341°
2026-04-23 17:46 51.63593 -0.25508 11650 ft 335 kts 330°
2026-04-23 17:46 51.65575 -0.27515 12393 ft 339 kts 331°
2026-04-23 17:47 51.67608 -0.29504 13182 ft 343 kts 332°
2026-04-23 17:47 51.69673 -0.31481 13972 ft 347 kts 333°
2026-04-23 17:47 51.73880 -0.35492 15371 ft 355 kts 332°
2026-04-23 17:48 51.75988 -0.37517 16041 ft 359 kts 332°
2026-04-23 17:48 51.78147 -0.39599 16635 ft 363 kts 332°
2026-04-23 17:48 51.80324 -0.41703 17309 ft 367 kts 331°
2026-04-23 17:48 51.82529 -0.43836 17983 ft 371 kts 331°
2026-04-23 17:49 51.84751 -0.45992 18679 ft 374 kts 331°
2026-04-23 17:49 51.86995 -0.48177 19251 ft 378 kts 330°
2026-04-23 17:49 51.89262 -0.50385 19818 ft 383 kts 330°
2026-04-23 17:49 51.91559 -0.52619 20368 ft 387 kts 330°
2026-04-23 17:50 51.93882 -0.54882 20919 ft 392 kts 330°
2026-04-23 17:50 51.98570 -0.59457 22042 ft 400 kts 329°
2026-04-23 17:50 52.00965 -0.61797 22585 ft 404 kts 329°
2026-04-23 17:51 52.03380 -0.64162 23116 ft 408 kts 329°
2026-04-23 17:51 52.05822 -0.66563 23664 ft 412 kts 328°
2026-04-23 17:51 52.10766 -0.71431 24634 ft 419 kts 328°
2026-04-23 17:52 52.13272 -0.73897 25071 ft 423 kts 328°
2026-04-23 17:52 52.18312 -0.78865 25937 ft 430 kts 328°
2026-04-23 17:52 52.20878 -0.81403 26365 ft 433 kts 328°
2026-04-23 17:53 52.26070 -0.86552 27202 ft 440 kts 328°
2026-04-23 17:53 52.28698 -0.89161 27609 ft 444 kts 328°
2026-04-23 17:53 52.31348 -0.91792 28007 ft 447 kts 327°
2026-04-23 17:54 52.34013 -0.94444 28421 ft 451 kts 327°
2026-04-23 17:54 52.36703 -0.97131 28818 ft 455 kts 327°
2026-04-23 17:54 52.42109 -1.02545 30000 ft 451 kts 328°
2026-04-23 17:55 52.47433 -1.07892 30842 ft 454 kts 328°
2026-04-23 17:55 52.50136 -1.10600 31142 ft 456 kts 328°
2026-04-23 17:55 52.52849 -1.13316 31489 ft 458 kts 328°
2026-04-23 17:56 52.55571 -1.16046 31820 ft 459 kts 328°
2026-04-23 17:56 52.61027 -1.21548 32284 ft 458 kts 328°
2026-04-23 17:56 52.63696 -1.24257 32302 ft 445 kts 328°
2026-04-23 17:57 52.66292 -1.26899 32299 ft 431 kts 328°
2026-04-23 17:57 52.68816 -1.29468 32304 ft 423 kts 328°
2026-04-23 17:57 52.73758 -1.34489 32438 ft 419 kts 328°
2026-04-23 17:58 52.76245 -1.37022 32427 ft 420 kts 328°
2026-04-23 17:58 52.81222 -1.42099 32442 ft 420 kts 328°
2026-04-23 17:59 52.86191 -1.47182 32430 ft 420 kts 328°
2026-04-23 17:59 52.91118 -1.52251 32442 ft 419 kts 329°
2026-04-23 17:59 52.93555 -1.54764 32434 ft 406 kts 329°
2026-04-23 18:00 52.95925 -1.57208 32441 ft 398 kts 329°
2026-04-23 18:00 53.00605 -1.62029 32439 ft 395 kts 329°
2026-04-23 18:01 53.05291 -1.66750 32440 ft 394 kts 335°
2026-04-23 18:01 53.10381 -1.70066 32442 ft 393 kts 341°
2026-04-23 18:02 53.14639 -1.72706 32446 ft 393 kts 341°
2026-04-23 18:02 53.20588 -1.76405 32433 ft 393 kts 341°
2026-04-23 18:03 53.25706 -1.79596 32435 ft 393 kts 340°
2026-04-23 18:03 53.30821 -1.82792 32427 ft 393 kts 341°
2026-04-23 18:04 53.35945 -1.86001 32435 ft 393 kts 341°
2026-04-23 18:04 53.41040 -1.89191 32429 ft 394 kts 341°
2026-04-23 18:05 53.46168 -1.92417 32438 ft 393 kts 340°
2026-04-23 18:05 53.51294 -1.95653 32429 ft 394 kts 340°
2026-04-23 18:06 53.56386 -1.98877 32442 ft 394 kts 340°
2026-04-23 18:06 53.61507 -2.02127 32441 ft 394 kts 340°
2026-04-23 18:07 53.66636 -2.05388 32447 ft 394 kts 340°
2026-04-23 18:07 53.71761 -2.08654 32428 ft 393 kts 340°
2026-04-23 18:08 53.75989 -2.11371 32463 ft 390 kts 340°
2026-04-23 18:08 53.81847 -2.15347 32472 ft 387 kts 339°
2026-04-23 18:09 53.86780 -2.18766 32470 ft 385 kts 339°
2026-04-23 18:09 53.91734 -2.22176 32467 ft 384 kts 339°
2026-04-23 18:10 53.96683 -2.25571 32465 ft 383 kts 339°
2026-04-23 18:10 54.01622 -2.28974 32459 ft 383 kts 339°
2026-04-23 18:11 54.06521 -2.32349 32451 ft 383 kts 339°
2026-04-23 18:11 54.11456 -2.35763 32446 ft 383 kts 339°
2026-04-23 18:12 54.16389 -2.39183 32443 ft 383 kts 339°
2026-04-23 18:12 54.21291 -2.42594 32443 ft 383 kts 339°
2026-04-23 18:13 54.26227 -2.46030 32437 ft 383 kts 339°
2026-04-23 18:13 54.31160 -2.49477 32435 ft 383 kts 339°
2026-04-23 18:14 54.35253 -2.52342 32435 ft 383 kts 339°
2026-04-23 18:14 54.41021 -2.56390 32433 ft 383 kts 339°
2026-04-23 18:14 54.43477 -2.58118 32054 ft 381 kts 339°
2026-04-23 18:15 54.45892 -2.59821 31632 ft 379 kts 339°
2026-04-23 18:15 54.48324 -2.61537 31205 ft 377 kts 339°
2026-04-23 18:15 54.50742 -2.63250 30786 ft 375 kts 339°
2026-04-23 18:15 54.53143 -2.64948 30365 ft 373 kts 339°
2026-04-23 18:16 54.55535 -2.66641 29903 ft 371 kts 339°
2026-04-23 18:16 54.57913 -2.68328 29454 ft 369 kts 339°
2026-04-23 18:16 54.60282 -2.70011 28950 ft 369 kts 338°
2026-04-23 18:17 54.64981 -2.73354 28079 ft 366 kts 338°
2026-04-23 18:17 54.67330 -2.75030 27650 ft 364 kts 338°
2026-04-23 18:17 54.69668 -2.76698 27230 ft 363 kts 338°
2026-04-23 18:17 54.71995 -2.78360 26808 ft 361 kts 338°
2026-04-23 18:18 54.74311 -2.80020 26369 ft 360 kts 338°
2026-04-23 18:18 54.76619 -2.81674 25934 ft 358 kts 338°
2026-04-23 18:18 54.78911 -2.83317 25512 ft 356 kts 338°
2026-04-23 18:18 54.81197 -2.84958 25096 ft 355 kts 338°
2026-04-23 18:19 54.83473 -2.86595 24746 ft 353 kts 338°
2026-04-23 18:19 54.85716 -2.88208 24514 ft 354 kts 338°
2026-04-23 18:19 54.87984 -2.89844 24281 ft 352 kts 338°
2026-04-23 18:19 54.90249 -2.91480 24050 ft 352 kts 338°
2026-04-23 18:20 54.92511 -2.93113 23777 ft 352 kts 338°
2026-04-23 18:20 54.94763 -2.94746 23493 ft 351 kts 338°
2026-04-23 18:20 54.97011 -2.96379 23236 ft 349 kts 338°
2026-04-23 18:20 54.99252 -2.98003 22962 ft 349 kts 338°
2026-04-23 18:21 55.01490 -2.99624 22696 ft 348 kts 338°
2026-04-23 18:21 55.03691 -3.01220 22445 ft 347 kts 338°
2026-04-23 18:21 55.05916 -3.02835 22178 ft 346 kts 338°
2026-04-23 18:21 55.08133 -3.04448 21893 ft 345 kts 337°
2026-04-23 18:22 55.10346 -3.06061 21438 ft 344 kts 337°
2026-04-23 18:22 55.12550 -3.07671 20955 ft 344 kts 337°
2026-04-23 18:22 55.14756 -3.09287 20474 ft 344 kts 337°
2026-04-23 18:22 55.16966 -3.10910 19915 ft 346 kts 337°
2026-04-23 18:23 55.18442 -3.11996 19528 ft 348 kts 336°
2026-04-23 18:23 55.23702 -3.15876 18111 ft 353 kts 336°
2026-04-23 18:24 55.28195 -3.19142 17085 ft 349 kts 340°
2026-04-23 18:24 55.30549 -3.20036 16720 ft 344 kts 355°
2026-04-23 18:24 55.32898 -3.19934 16588 ft 332 kts
2026-04-23 18:25 55.37396 -3.19222 16054 ft 320 kts
2026-04-23 18:25 55.39599 -3.18887 15700 ft 317 kts
2026-04-23 18:25 55.41793 -3.18555 15331 ft 316 kts
2026-04-23 18:25 55.43947 -3.18227 14983 ft 314 kts
2026-04-23 18:26 55.46107 -3.18340 14624 ft 309 kts 345°
2026-04-23 18:26 55.48028 -3.19913 14282 ft 304 kts 323°
2026-04-23 18:26 55.49703 -3.22175 13864 ft 303 kts 320°
2026-04-23 18:26 55.51338 -3.24492 13465 ft 301 kts 320°
2026-04-23 18:27 55.52965 -3.26812 13077 ft 300 kts 320°
2026-04-23 18:27 55.54584 -3.29125 12694 ft 299 kts 320°
2026-04-23 18:27 55.55653 -3.30653 12441 ft 298 kts 320°
2026-04-23 18:27 55.57260 -3.32950 12072 ft 297 kts 320°
2026-04-23 18:28 55.59381 -3.35979 11564 ft 296 kts 320°
2026-04-23 18:28 55.60987 -3.38259 11186 ft 296 kts 320°
2026-04-23 18:28 55.62590 -3.40535 10839 ft 295 kts 320°
2026-04-23 18:28 55.64187 -3.42800 10510 ft 293 kts 320°
2026-04-23 18:29 55.65241 -3.44297 10275 ft 293 kts 320°
2026-04-23 18:29 55.66822 -3.46544 9911 ft 291 kts 319°
2026-04-23 18:29 55.68152 -3.49181 9561 ft 286 kts 297°
2026-04-23 18:29 55.68958 -3.52375 9201 ft 283 kts 290°
2026-04-23 18:30 55.69905 -3.56657 8740 ft 281 kts 289°
2026-04-23 18:30 55.70605 -3.59874 8369 ft 278 kts 289°
2026-04-23 18:30 55.71070 -3.62027 8063 ft 277 kts 289°
2026-04-23 18:30 55.71752 -3.65207 7594 ft 274 kts 289°
2026-04-23 18:31 55.72407 -3.68277 7369 ft 262 kts 289°
2026-04-23 18:31 55.73036 -3.71216 7239 ft 248 kts 289°
2026-04-23 18:31 55.73629 -3.74024 6938 ft 240 kts 289°
2026-04-23 18:31 55.74225 -3.76782 6474 ft 240 kts 294°
2026-04-23 18:32 55.75276 -3.79043 6088 ft 241 kts 321°
2026-04-23 18:32 55.76788 -3.80340 5697 ft 240 kts 346°
2026-04-23 18:32 55.78397 -3.80465 5576 ft 226 kts
2026-04-23 18:32 55.79835 -3.79601 5451 ft 212 kts 28°
2026-04-23 18:33 55.80959 -3.78028 5195 ft 206 kts 48°
2026-04-23 18:33 55.81755 -3.75957 4940 ft 202 kts 60°
2026-04-23 18:33 55.82487 -3.73838 4676 ft 200 kts 60°
2026-04-23 18:33 55.83214 -3.71731 4403 ft 199 kts 60°
2026-04-23 18:34 55.83933 -3.69643 4141 ft 196 kts 60°
2026-04-23 18:34 55.84642 -3.67582 3881 ft 193 kts 60°
2026-04-23 18:34 55.85328 -3.65586 3627 ft 184 kts 61°
2026-04-23 18:34 55.85978 -3.63693 3386 ft 176 kts 61°
2026-04-23 18:35 55.86605 -3.61865 3160 ft 170 kts 60°
2026-04-23 18:35 55.87219 -3.60071 2928 ft 168 kts 61°
2026-04-23 18:35 55.87817 -3.58325 2706 ft 166 kts 61°
2026-04-23 18:35 55.88413 -3.56584 2488 ft 162 kts 62°
2026-04-23 18:36 55.88978 -3.54931 2270 ft 151 kts 60°
2026-04-23 18:36 55.89505 -3.53390 2067 ft 142 kts 60°
2026-04-23 18:36 55.90011 -3.51908 1885 ft 137 kts 62°
2026-04-23 18:36 55.90503 -3.50465 1695 ft 137 kts 61°
2026-04-23 18:37 55.90991 -3.49024 1511 ft 136 kts 61°
2026-04-23 18:37 55.91490 -3.47595 1331 ft 136 kts 60°
2026-04-23 18:37 55.91976 -3.46178 1122 ft 132 kts 62°
2026-04-23 18:37 55.92444 -3.44796 972 ft 131 kts 60°
2026-04-23 18:38 55.92913 -3.43406 744 ft 129 kts 60°
2026-04-23 18:38 55.93383 -3.42027 583 ft 132 kts 59°
2026-04-23 18:38 55.93849 -3.40646 397 ft 129 kts 62°
2026-04-23 18:38 55.94317 -3.39277 229 ft 128 kts 60°
2026-04-23 18:39 55.94775 -3.37925 118 ft 121 kts 60°
2026-04-23 18:39 55.95116 -3.36904 114 ft 56 kts 59°
2026-04-23 18:39 55.95267 -3.36459 110 ft 39 kts 59°
2026-04-23 18:39 55.95377 -3.36134 109 ft 21 kts 59°
2026-04-23 18:40 55.95455 -3.35904 111 ft 24 kts 58°
2026-04-23 18:40 55.95533 -3.35673 113 ft 19 kts 59°
2026-04-23 18:40 55.95569 -3.35541 113 ft 11 kts 92°
2026-04-23 18:40 55.95512 -3.35454 113 ft 10 kts 148°
2026-04-23 18:41 55.95448 -3.35402 114 ft 11 kts 181°
2026-04-23 18:41 55.95397 -3.35505 113 ft 13 kts 239°
2026-04-23 18:41 55.95345 -3.35657 115 ft 16 kts 239°
2026-04-23 18:41 55.95296 -3.35804 114 ft 14 kts 239°
2026-04-23 18:42 55.95245 -3.35954 116 ft 13 kts 239°
2026-04-23 18:42 55.95200 -3.36086 116 ft 12 kts 239°
2026-04-23 18:42 55.95150 -3.36233 115 ft 15 kts 239°
2026-04-23 18:42 55.95106 -3.36367 116 ft 9 kts 239°
2026-04-23 18:43 55.95045 -3.36386 116 ft 11 kts 166°
2026-04-23 18:43 55.94992 -3.36462 116 ft 7 kts 240°
2026-04-23 18:43 55.94965 -3.36479 115 ft 5 kts 162°
2026-04-23 18:43 55.94929 -3.36439 115 ft 3 kts 148°
2026-04-23 18:44 55.94919 -3.36429 115 ft 1 kts 148°